Date,TemperatureHighF,TemperatureAvgF,TemperatureLowF,DewpointHighF,DewpointAvgF,DewpointLowF,HumidityHigh,HumidityAvg,HumidityLow,PressureMaxIn,PressureMinIn,WindSpeedMaxMPH,WindSpeedAvgMPH,GustSpeedMaxMPH,PrecipitationSumIn
2014-1-1,24.1,15.4,9.0,13.5,8.7,3.3,100,75,51,30.92,30.75,5,1,21,0.00
2014-1-2,14.2,11.5,6.1,13.7,11.1,4.4,100,98,95,30.84,30.37,5,0,14,0.00
2014-1-3,7.9,0.1,-8.7,4.4,-4.3,-13.6,95,81,63,30.93,30.34,8,3,19,0.00
2014-1-4,33.8,10.2,-12.6,9.7,-1.4,-16.1,91,62,31,30.93,30.76,4,1,11,0.00
2014-1-5,48.4,30.6,10.9,45.8,23.7,5.8,100,78,41,30.86,30.41,6,1,25,0.54
2014-1-6,54.9,35.5,7.7,52.1,32.8,4.5,100,90,65,30.41,30.01,9,4,34,1.02
2014-1-7,6.3,-0.9,-4.5,4.5,-12.0,-16.0,92,58,44,30.76,30.22,9,4,32,0.08
2014-1-8,22.6,6.9,-2.7,5.4,-1.8,-10.0,80,67,43,30.99,30.75,4,1,14,0.00
2014-1-9,31.8,14.9,7.7,14.5,8.3,2.7,100,76,46,31.16,30.97,6,1,15,0.00
2014-1-10,40.6,30.4,15.8,40.4,27.7,12.7,100,90,64,31.08,30.80,4,1,19,0.00
2014-1-11,55.9,49.3,37.4,55.7,48.9,37.1,100,98,90,30.80,29.97,6,3,28,1.72
2014-1-12,43.9,33.8,27.3,42.3,29.4,23.3,100,84,74,30.64,30.04,9,4,25,0.01
2014-1-13,55.4,37.1,22.5,36.6,29.4,22.2,100,76,37,30.69,30.47,5,1,17,0.00
2014-1-14,143.8,41.1,31.8,99.9,39.1,31.4,100,94,10,30.48,30.33,32,1,32,14.10
2014-1-15,47.7,34.5,23.0,40.9,33.0,22.8,100,95,71,30.58,30.46,4,1,16,0.01
2014-1-16,35.1,27.4,23.0,33.6,25.9,22.6,100,94,79,30.57,30.48,3,1,11,0.00
2014-1-17,45.0,27.2,15.3,31.1,23.4,15.1,100,87,50,30.55,30.49,3,0,9,0.04
2014-1-18,32.5,23.8,18.5,32.3,23.3,17.6,100,98,91,30.51,30.29,6,1,16,0.00
2014-1-19,30.7,23.2,17.1,24.7,18.5,14.2,100,83,64,30.40,30.16,5,2,23,0.01
2014-1-20,35.6,26.3,12.6,29.3,21.6,8.4,100,82,74,30.49,30.16,5,2,17,0.00
2014-1-21,14.5,6.3,-0.9,8.4,-0.8,-8.0,85,72,57,30.58,30.45,4,1,13,0.00
2014-1-22,14.4,0.6,-7.4,-2.8,-9.2,-13.9,80,63,44,30.52,30.33,6,2,17,0.00
2014-1-23,14.5,3.1,-3.6,0.6,-5.3,-11.8,78,67,51,30.74,30.50,6,2,23,0.00
2014-1-24,144.7,6.3,-1.1,99.9,-1.2,-8.7,74,61,10,34.50,30.49,191,4,191,7.39
2014-1-25,19.4,12.8,7.2,14.8,7.5,-4.0,97,80,50,30.49,29.97,5,1,24,0.00
2014-1-26,144.7,10.9,2.5,14.2,0.9,-8.1,93,66,37,34.50,30.00,6,2,53,0.00
2014-1-27,42.3,21.9,4.5,34.4,10.8,-10.4,92,63,35,30.60,30.14,8,3,27,0.08
2014-1-28,17.2,5.4,-2.2,-2.1,-8.7,-14.2,68,52,32,30.83,30.59,6,1,20,0.00
2014-1-29,27.5,8.3,-7.4,-2.1,-7.4,-13.2,79,51,24,30.78,30.55,5,1,15,0.00
2014-1-30,29.7,14.2,-2.9,8.3,-0.1,-8.8,81,54,35,30.94,30.66,6,1,24,0.00
2014-1-31,36.7,27.8,14.5,22.6,13.4,-7.7,77,56,25,30.81,30.58,6,2,24,0.00